EW1145 Weather Reports


Display with metric or nautical units.
time (UTC)temp
F
wind
direction
speed
MPH
gust
MPH
rain 1hr
in
rain 24hr
in
rain mn
in
humidity
%
barometer
mb
20260831193051 76 104 0.0 5.0 0.00 0.00 0.00 43 1008.9
20260831191553 75 32 0.0 0.0 0.00 0.00 0.00 42 1009.0
20260831190046 75 106 0.0 4.0 0.00 0.00 0.00 48 1009.3
20260831184547 74 35 0.0 4.0 0.00 0.00 0.00 47 1009.5
20260831183039 73 34 0.0 1.0 0.00 0.00 0.00 52 1009.6
20260831181545 73 34 0.0 3.0 0.00 0.00 0.00 54 1009.8
20260831180034 72 34 0.0 0.0 0.00 0.00 0.00 55 1010.0
20260831174538 72 34 0.0 3.0 0.00 0.00 0.00 54 1010.1
20260831173033 72 34 0.0 3.0 0.00 0.00 0.00 55 1010.3
20260831171528 71 34 0.0 1.0 0.00 0.00 0.00 56 1010.4
20260831170033 70 33 0.0 3.0 0.00 0.00 0.00 58 1010.5
20260831164522 69 33 0.0 0.0 0.00 0.00 0.00 59 1010.6
20260831163020 69 25 0.0 0.0 0.00 0.00 0.00 60 1010.8
20260831161516 66 25 0.0 0.0 0.00 0.00 0.00 65 1010.8
20260831160015 66 25 0.0 0.0 0.00 0.00 0.00 66 1010.9
20260831154511 63 25 0.0 0.0 0.00 0.00 0.00 72 1011.0
20260831153011 62 25 0.0 0.0 0.00 0.00 0.00 72 1011.1
20260831151508 62 25 0.0 0.0 0.00 0.00 0.00 71 1011.2
20260831150008 61 25 0.0 0.0 0.00 0.00 0.00 75 1011.3
20260831144507 60 25 0.0 1.0 0.00 0.00 0.00 75 1011.3
20260831143007 58 25 0.0 0.0 0.00 0.00 0.00 76 1011.3
20260831141506 58 25 0.0 0.0 0.00 0.00 0.00 77 1011.3
20260831140012 58 25 0.0 0.0 0.00 0.00 0.00 76 1011.3
20260831134505 59 25 0.0 0.0 0.00 0.00 0.00 74 1011.3
20260831133003 59 25 0.0 0.0 0.00 0.00 0.00 74 1011.3
20260831131502 59 25 0.0 0.0 0.00 0.00 0.00 74 1011.4
20260831130001 59 309 0.0 0.0 0.00 0.00 0.00 75 1011.5
20260831124600 58 310 0.0 0.0 0.00 0.00 0.00 75 1011.6
20260831123059 58 309 0.0 1.0 0.00 0.00 0.00 76 1011.6
20260831121558 58 324 0.0 0.0 0.00 0.00 0.00 76 1011.8
20260831120129 58 320 0.0 0.0 0.00 0.00 0.00 76 1012.0
20260831114555 58 320 0.0 1.0 0.00 0.00 0.00 75 1012.0
20260831113057 58 320 0.0 0.0 0.00 0.00 0.00 76 1012.1
20260831111556 58 272 0.0 0.0 0.00 0.00 0.00 76 1012.2
20260831110050 59 272 0.0 0.0 0.00 0.00 0.00 75 1012.2
20260831104556 60 272 0.0 0.0 0.00 0.00 0.00 73 1012.2
20260831103045 60 272 0.0 2.0 0.00 0.00 0.00 72 1012.3
20260831101546 60 288 0.0 4.0 0.00 0.00 0.00 72 1012.4
20260831100043 60 265 0.0 4.0 0.00 0.00 0.00 72 1012.8
20260831094539 60 29 0.0 1.0 0.00 0.00 0.00 72 1013.0
20260831093038 61 296 0.0 5.0 0.00 0.00 0.00 72 1013.1
20260831091539 61 275 0.0 3.0 0.00 0.00 0.00 72 1013.0
20260831090036 61 298 0.0 0.0 0.00 0.00 0.00 73 1013.2
20260831084533 61 298 0.0 0.0 0.00 0.00 0.00 73 1013.4
20260831083032 61 298 0.0 3.0 0.00 0.00 0.00 73 1013.5
20260831081530 61 340 0.0 0.0 0.00 0.00 0.00 72 1013.6
20260831080033 62 340 0.0 0.0 0.00 0.00 0.00 72 1013.8
20260831074527 62 333 0.0 0.0 0.00 0.00 0.00 71 1013.9
20260831073024 62 311 0.0 1.0 0.00 0.00 0.00 71 1013.9
20260831071524 62 317 0.0 4.0 0.00 0.00 0.00 71 1014.0
20260831070026 63 55 0.0 5.0 0.00 0.00 0.00 71 1014.1
20260831064520 63 303 0.0 9.0 0.00 0.00 0.00 71 1014.3
20260831063019 63 275 0.0 3.0 0.00 0.00 0.00 71 1014.4
20260831061517 63 281 0.0 7.0 0.00 0.00 0.00 70 1014.6
20260831060016 63 286 0.0 4.0 0.00 0.00 0.00 70 1014.6
20260831054515 63 301 0.0 5.0 0.00 0.00 0.00 70 1014.9
20260831053013 63 50 0.0 3.0 0.00 0.00 0.00 70 1015.1
20260831051518 63 310 0.0 4.0 0.00 0.00 0.00 69 1015.3
20260831050010 63 317 0.0 8.0 0.00 0.00 0.00 68 1015.3
20260831044509 64 12 0.0 7.0 0.00 0.00 0.00 68 1015.5
20260831043009 64 309 0.0 5.0 0.00 0.00 0.00 68 1015.5
20260831041507 64 259 1.0 7.0 0.00 0.00 0.00 67 1015.6
20260831040006 64 275 0.0 7.0 0.00 0.00 0.00 66 1015.5
20260831034506 65 345 0.0 5.0 0.00 0.00 0.00 65 1015.5
20260831033013 65 296 0.0 6.0 0.00 0.00 0.00 65 1015.6
20260831031512 66 271 0.0 4.0 0.00 0.00 0.00 64 1015.5
20260831030004 66 355 0.0 9.0 0.00 0.00 0.00 63 1015.6
20260831024504 67 17 0.0 3.0 0.00 0.00 0.00 62 1015.7
20260831023002 68 338 0.0 8.0 0.00 0.00 0.00 60 1015.8
20260831021503 68 5 2.0 8.0 0.00 0.00 0.00 59 1015.8
20260831020002 69 40 1.0 7.0 0.00 0.00 0.00 58 1015.8
20260831014602 70 355 0.0 11.0 0.00 0.00 0.00 56 1015.9
20260831013105 71 19 1.0 8.0 0.00 0.00 0.00 55 1016.0
20260831011558 72 16 0.0 8.0 0.00 0.00 0.00 53 1016.1
20260831010057 73 39 0.0 7.0 0.00 0.00 0.00 51 1016.2
20260831004600 74 355 3.0 8.0 0.00 0.00 0.00 49 1016.3
20260831003056 75 338 0.0 7.0 0.00 0.00 0.00 49 1016.4
20260831001555 76 111 0.0 6.0 0.00 0.00 0.00 47 1016.3
20260831000055 75 323 2.0 8.0 0.00 0.00 0.00 48 1016.3
20260830234553 75 17 1.0 7.0 0.00 0.00 0.00 48 1016.4
20260830233052 75 311 1.0 7.0 0.00 0.00 0.00 47 1016.5
20260830231551 75 71 2.0 9.0 0.00 0.00 0.00 47 1016.7
20260830230048 75 32 0.0 6.0 0.00 0.00 0.00 47 1016.9
20260830224546 75 123 0.0 4.0 0.00 0.00 0.00 47 1017.1
20260830223041 74 14 1.0 8.0 0.00 0.00 0.00 46 1017.4
20260830221542 74 80 0.0 5.0 0.00 0.00 0.00 46 1017.6
20260830220039 73 17 0.0 7.0 0.00 0.00 0.00 47 1017.8
20260830214536 72 90 1.0 8.0 0.00 0.00 0.00 48 1017.9
20260830213037 73 100 1.0 7.0 0.00 0.00 0.00 47 1018.1
20260830211532 73 138 0.0 6.0 0.00 0.00 0.00 47 1018.3
20260830210028 73 292 0.0 7.0 0.00 0.00 0.00 46 1018.5
20260830204527 72 300 1.0 6.0 0.00 0.00 0.00 47 1018.6
20260830203023 71 48 0.0 7.0 0.00 0.00 0.00 48 1018.8
20260830201521 70 90 1.0 8.0 0.00 0.00 0.00 49 1019.0
20260830200018 70 91 0.0 8.0 0.00 0.00 0.00 50 1019.1
20260830194516 69 30 0.0 5.0 0.00 0.00 0.00 52 1019.3